Sitka, AK

12:01 AM AKDT on June 25, 2017 (GMT -0800)
Sitka Rocky Gutierrez

Weather History for PASI - August, 2012

Change the Weather History Date:

Monday, August 27, 2012

  Actual Average Record
Temperature  
Mean Temperature 55 °F -  
Max Temperature 60 °F 61 °F 73 °F (1966)
Min Temperature 51 °F 51 °F 42 °F (1984)
Degree Days  
Heating Degree Days 10    
Growing Degree Days 5 (Base 50)    
Moisture  
Dew Point 52 °F    
Average Humidity 92    
Maximum Humidity 100    
Minimum Humidity 77    
Precipitation  
Precipitation 0.46 in - - ()
Sea Level Pressure  
Sea Level Pressure 29.88 in    
Wind  
Wind Speed 7 mph (SSW)    
Max Wind Speed 17 mph    
Max Gust Speed 24 mph    
Visibility 9 miles    
Events Rain    
Averages and records for this station are not official NWS values.
T = Trace of Precipitation, MM = Missing Value Source: NWS Daily Summary

Daily Weather History Graph

Daily Weather History Graph

Search for Another Location

Airport or City:

Trip Planner

Search our weather history database for the weather conditions in past years. The results will help you decide how hot, cold, wet, or windy it might be!

Date:

Astronomy

Aug. 27, 2012 Rise Set
Actual Time 5:54 AM AKDT 8:09 PM AKDT
Civil Twilight 5:12 AM AKDT 8:50 PM AKDT
Nautical Twilight 4:19 AM AKDT 9:43 PM AKDT
Astronomical Twilight 3:12 AM AKDT 10:49 PM AKDT
Moon 6:04 PM AKDT (8/27) 1:09 AM AKDT (8/27)
Length of Visible Light 15h 37m
Length of Day
14h 14m
Waxing Gibbous, 84% of the Moon is Illuminated
Aug 27
Waxing Gibbous
Aug 31
Full
Sep 8
Last Quarter
Sep 15
New
Sep 22
First Quarter

Hourly Weather History & Observations

Time (AKDT) Temp. Dew Point Humidity Pressure Visibility Wind Dir Wind Speed Gust Speed Precip Events Conditions
12:53 AM 54.0 °F 52.0 °F 93% 29.89 in 10.0 mi East 4.6 mph - N/A   Clear
1:53 AM 54.0 °F 52.0 °F 93% 29.90 in 10.0 mi NNW 3.5 mph - N/A   Clear
2:53 AM 55.0 °F 52.0 °F 89% 29.89 in 10.0 mi NW 11.5 mph - N/A   Clear
3:53 AM 53.1 °F 51.1 °F 93% 29.89 in 10.0 mi East 6.9 mph - N/A   Partly Cloudy
4:53 AM 52.0 °F 51.1 °F 97% 29.89 in 10.0 mi Calm Calm - N/A   Partly Cloudy
5:53 AM 55.0 °F 48.0 °F 77% 29.89 in 10.0 mi NNE 6.9 mph - N/A   Mostly Cloudy
6:18 AM 51.8 °F 48.2 °F 88% 29.89 in 10.0 mi East 5.8 mph - N/A   Mostly Cloudy
6:53 AM 53.1 °F 51.1 °F 93% 29.89 in 10.0 mi SE 3.5 mph - N/A   Mostly Cloudy
7:51 AM 53.6 °F 51.8 °F 94% 29.90 in 10.0 mi Calm Calm - N/A   Scattered Clouds
7:53 AM 54.0 °F 52.0 °F 93% 29.90 in 10.0 mi Calm Calm - N/A   Scattered Clouds
8:53 AM 55.0 °F 52.0 °F 89% 29.90 in 10.0 mi Calm Calm - N/A   Overcast
9:53 AM 55.9 °F 50.0 °F 80% 29.89 in 10.0 mi SW 3.5 mph - N/A   Mostly Cloudy
10:53 AM 57.0 °F 51.1 °F 81% 29.90 in 10.0 mi WSW 4.6 mph - N/A   Mostly Cloudy
11:53 AM 57.9 °F 52.0 °F 81% 29.90 in 10.0 mi WSW 6.9 mph - N/A   Overcast
12:53 PM 57.9 °F 54.0 °F 87% 29.91 in 10.0 mi WSW 6.9 mph - N/A   Overcast
1:53 PM 59.0 °F 54.0 °F 83% 29.90 in 10.0 mi SSW 6.9 mph - N/A   Overcast
2:53 PM 57.9 °F 55.0 °F 90% 29.89 in 10.0 mi SW 8.1 mph - N/A   Overcast
3:53 PM 57.0 °F 54.0 °F 89% 29.89 in 10.0 mi Variable 5.8 mph - N/A   Overcast
4:12 PM 57.2 °F 53.6 °F 88% 29.89 in 10.0 mi SSW 6.9 mph - N/A   Overcast
4:53 PM 55.9 °F 55.0 °F 97% 29.89 in 10.0 mi South 9.2 mph - 0.00 in   Overcast
5:53 PM 55.0 °F 54.0 °F 96% 29.88 in 10.0 mi SSW 11.5 mph - 0.00 in Rain Light Rain
6:51 PM 55.4 °F 53.6 °F 94% 29.85 in 8.0 mi SSW 13.8 mph - 0.00 in Rain Light Rain
6:53 PM 55.0 °F 54.0 °F 96% 29.86 in 8.0 mi SSW 16.1 mph - 0.00 in Rain Light Rain
7:51 PM 53.6 °F 53.6 °F 100% 29.85 in 6.0 mi SSW 17.3 mph 24.2 mph 0.06 in Rain Light Rain
7:53 PM 54.0 °F 53.1 °F 97% 29.85 in 6.0 mi SSW 16.1 mph 24.2 mph 0.06 in Rain Light Rain
8:53 PM 54.0 °F 53.1 °F 97% 29.84 in 7.0 mi SSW 12.7 mph - 0.14 in Rain Light Rain
9:08 PM 53.6 °F 51.8 °F 94% 29.83 in 9.0 mi South 13.8 mph 21.9 mph 0.02 in Rain Light Rain
9:53 PM 54.0 °F 53.1 °F 97% 29.84 in 6.0 mi SSW 10.4 mph - 0.08 in Rain Light Rain
10:53 PM 54.0 °F 53.1 °F 97% 29.84 in 6.0 mi South 12.7 mph 19.6 mph 0.10 in Rain Rain
11:29 PM 53.6 °F 53.6 °F 100% 29.82 in 5.0 mi SSE 11.5 mph - 0.05 in Rain Light Rain
11:53 PM 54.0 °F 53.1 °F 97% 29.81 in 6.0 mi East 8.1 mph - 0.08 in Rain Light Rain